LUCH 5V

Last updated on Tue Oct 08 2024 00:02:28 GMT+0000 (Coordinated Universal Time)

1 39727U 14023A 24281.61927487 -.00000257 00000+0 00000+0 0 9992 2 39727 3.5758 75.1643 0003785 156.7934 102.4973 1.00269643 38167
UTC large
Height (km)
Speed (km/s)
/
Latitude / Longitude
Inclination (degrees)
Orbital Period (minutes)
Azimuth
Elevation
Range (km)
Doppler Factor

Next 0 passes for location: London (51.5072 / 0.1276)

Sorry there are no passes over London.